Temperature
21 20 19 20 25 28 28 28 28 27 27 26 25 25 25 25 25 23 20 19 19 19 18 19 19 19 19 19 19 19 19 19 19 19 19 19 19 19 18 18 18 18 18 18 18 18 18 18 18
20 20 20 23 28 28 27 28 27 27 26 25 25 25 25 23 22 20 19 19 19 19 18 18 19 19 19 19 19 19 19 19 19 19 19 19 19 18 18 18 18 18 18 18 18 18 18 18 18
20 20 23 28 29 28 27 28 27 27 26 25 25 25 24 23 21 20 19 19 19 19 18 18 19 19 19 19 19 19 19 19 19 19 19 19 18 18 19 18 18 18 18 18 18 18 18 18 18
20 22 25 29 28 28 28 28 28 27 26 25 26 25 23 21 21 20 19 19 19 19 18 18 19 19 19 19 19 19 19 19 19 19 19 18 18 18 18 18 18 18 18 18 18 18 18 18 18
21 26 29 29 29 29 29 28 28 28 27 26 25 24 22 20 20 19 19 19 19 19 19 19 19 19 19 19 19 19 19 19 19 19 19 18 18 18 18 18 18 18 18 18 18 18 18 18 18
25 28 29 29 29 29 29 28 28 28 26 26 25 24 22 20 20 19 19 19 19 19 19 19 19 19 19 19 19 19 19 19 19 19 18 18 18 18 18 18 18 18 18 18 18 18 18 18 18
27 30 30 30 29 29 29 28 28 28 27 26 25 25 22 21 20 20 20 19 19 19 19 19 19 19 19 19 19 19 19 18 18 18 18 18 18 18 18 18 18 18 18 18 18 18 18 18 18
27 30 30 30 29 29 29 28 27 27 26 25 25 25 23 21 20 20 19 19 19 19 19 19 19 18 18 19 19 19 19 18 18 18 18 18 18 18 18 18 18 18 18 18 18 18 18 18 18
26 30 30 30 30 29 29 29 27 26 26 25 25 24 23 20 20 20 20 20 19 19 19 19 19 19 19 19 18 18 19 18 18 18 18 18 18 18 18 18 18 18 18 18 18 18 18 18 18
29 30 30 31 31 30 29 29 28 27 27 25 24 23 21 20 20 21 21 20 20 19 19 19 19 19 19 19 18 18 18 18 18 18 18 18 18 18 18 18 18 18 18 18 18 18 18 18 18
30 30 31 31 30 30 29 29 28 28 28 27 25 23 21 21 21 22 21 21 21 20 19 19 19 19 19 19 18 18 18 18 18 18 18 18 18 18 18 18 18 18 18 18 18 18 18 18 18
31 31 30 30 29 29 29 29 28 28 28 26 25 23 22 22 22 22 22 21 21 20 20 19 19 19 19 19 18 18 18 18 18 18 18 18 18 18 18 18 18 18 18 18 18 18 18 18 18
31 31 30 30 29 29 29 29 28 27 26 25 24 23 23 23 23 22 22 21 21 20 20 20 19 19 19 19 18 18 18 18 18 18 18 18 18 18 18 18 18 18 18 18 18 18 18 18 18
31 30 30 30 30 29 30 29 29 27 26 25 24 24 23 23 23 22 21 21 21 20 20 19 19 19 19 19 19 18 18 18 18 18 18 18 18 18 18 18 18 18 18 18 18 18 18 18 18
30 31 31 31 30 29 30 30 29 27 26 25 25 24 24 23 23 22 22 21 21 20 19 19 19 19 19 19 19 18 18 18 18 18 18 18 18 18 18 18 18 18 18 18 18 18 18 18 18
32 32 31 31 31 30 30 30 29 27 27 26 25 25 24 23 23 22 22 21 21 20 20 19 19 19 19 19 19 18 18 18 18 18 18 18 18 18 18 18 18 18 18 18 18 18 18 18 18
32 31 31 31 31 30 30 30 30 28 27 27 26 25 24 24 23 22 22 21 21 20 20 20 19 19 19 19 19 18 18 18 18 18 18 18 18 18 18 18 18 18 18 18 18 18 18 18 18
31 31 31 31 31 31 30 30 30 28 28 28 27 26 25 24 24 23 22 22 21 20 20 20 19 19 19 19 19 18 18 18 18 18 18 18 18 18 18 18 18 18 18 18 18 18 18 18 18
31 31 31 31 31 31 30 30 30 29 28 28 27 26 26 25 24 23 22 22 21 21 20 20 20 19 19 19 19 18 18 18 18 18 18 18 18 18 18 18 18 18 18 18 17 17 17 18 17
31 31 31 31 31 30 30 30 31 29 28 28 28 27 26 26 25 23 22 22 22 21 21 21 20 20 20 19 19 19 18 18 18 18 18 18 18 18 18 18 18 18 18 17 17 17 17 17 17
31 31 31 31 31 31 30 30 30 30 29 28 27 27 27 26 25 24 23 22 22 21 21 21 21 20 20 19 19 19 19 18 18 18 18 18 18 18 18 18 18 18 17 17 17 17 17 17 17
31 31 31 31 30 31 30 30 31 30 30 29 28 27 27 26 25 24 23 23 22 22 22 21 21 21 20 20 19 19 19 19 18 18 18 18 18 18 18 18 18 18 17 18 17 17 17 17 17
31 31 31 31 30 31 31 30 31 31 30 30 29 28 27 27 26 25 24 23 23 22 21 21 21 21 21 20 20 19 19 19 19 18 18 18 18 18 18 18 18 18 17 18 18 17 17 17 17
31 30 30 31 31 30 30 30 31 32 31 31 30 28 27 27 26 25 24 23 23 22 22 21 21 21 21 20 20 19 19 19 19 18 18 18 18 18 18 18 18 17 17 18 18 17 17 17 17
30 30 30 29 30 30 30 30 31 32 31 31 30 29 27 26 26 25 24 23 23 22 22 21 21 21 21 20 20 20 19 19 19 19 18 18 18 18 18 18 18 17 17 17 17 17 17 17 17
30 31 29 29 29 30 30 30 31 32 31 30 29 28 27 27 26 25 24 23 23 22 22 21 21 21 20 20 20 20 20 19 19 19 18 18 18 18 18 18 18 17 17 17 17 17 17 17 17
30 30 31 30 30 30 30 31 31 31 31 30 29 29 28 27 26 25 24 23 23 22 22 21 21 21 20 20 20 20 20 19 19 19 19 18 18 18 18 18 17 17 17 17 17 17 17 17 17
31 31 30 30 28 28 30 30 31 31 31 31 30 29 28 27 26 25 24 24 23 22 22 21 21 21 20 20 20 20 20 20 20 19 19 18 18 18 18 18 17 17 17 17 17 17 17 16 16
29 30 30 30 30 29 29 30 32 31 31 30 30 29 28 27 26 25 24 24 23 22 22 21 21 20 20 20 20 19 19 19 19 19 19 19 18 18 18 18 18 17 17 17 17 16 16 16 16
30 30 30 29 28 29 29 30 31 31 31 30 29 28 27 26 26 25 24 23 23 22 22 21 21 21 20 20 20 19 19 19 19 19 19 18 18 18 18 18 18 17 17 17 17 16 16 16 16
Wind_Speed
11 8 5 4 4 3 10 8 7 7 5 5 6 4 5 6 5 6 6 8 8 9 11 12 10 10 11 11 11 11 10 10 9 9 9 9 9 9 9 9 10 10 10 11 10 10 10 10 10
8 5 4 4 1 8 10 8 8 8 6 5 5 5 6 7 7 7 7 9 9 9 10 11 12 11 10 10 10 10 10 9 9 9 9 9 9 9 9 9 10 10 10 10 10 10 10 9 10
6 5 4 1 7 10 9 8 8 8 6 4 4 5 5 6 6 6 8 11 10 10 11 13 11 10 10 10 10 9 9 9 9 9 9 8 8 8 9 9 9 9 10 9 9 9 9 9 9
4 4 3 3 11 11 8 7 6 6 6 5 5 7 6 6 5 8 11 11 11 10 11 13 11 10 9 9 9 8 8 8 8 9 9 8 8 8 8 8 8 8 8 9 9 8 8 8 8
4 3 2 8 11 9 8 6 3 4 5 5 6 8 8 7 9 12 12 11 10 10 10 12 10 9 8 8 7 7 7 7 8 8 8 8 7 7 7 8 8 7 8 8 8 8 7 7 7
3 2 5 10 11 8 8 5 4 6 7 7 7 9 7 8 11 11 11 10 10 10 10 11 10 8 7 7 6 6 6 6 7 7 7 7 7 7 7 7 8 7 7 7 7 7 7 7 6
3 3 8 9 9 8 7 5 5 6 7 6 6 8 9 11 11 11 10 10 9 9 8 9 10 9 8 7 6 6 6 6 6 6 7 7 8 8 7 7 7 7 7 7 7 7 7 6 6
3 1 7 9 9 8 6 5 5 5 7 6 4 6 10 13 12 11 10 9 9 8 7 7 7 7 7 8 8 6 6 6 6 7 7 7 7 8 8 8 7 6 6 6 6 7 7 6 6
3 2 9 9 7 6 5 5 6 5 7 5 4 7 14 16 14 12 10 9 8 7 6 6 6 6 5 6 8 7 8 8 7 7 8 6 5 6 7 7 7 6 6 6 6 6 7 7 7
2 6 10 7 6 5 4 4 5 5 7 7 9 12 16 15 14 12 11 10 9 8 7 6 5 5 5 5 6 5 6 6 5 5 5 5 5 4 5 8 7 6 6 6 6 6 8 7 6
2 6 6 5 5 4 4 4 3 3 5 6 11 16 16 15 13 11 10 9 9 8 7 6 6 5 4 4 4 4 4 5 5 6 5 5 4 4 4 5 7 7 7 5 7 6 4 3 3
2 4 5 4 3 2 3 3 4 3 6 7 12 16 16 14 12 11 10 9 9 8 7 6 6 5 4 3 3 3 3 4 4 5 5 4 3 3 3 2 3 4 4 3 3 3 3 3 3
1 3 3 3 2 2 3 4 4 5 7 10 13 15 14 13 12 10 8 8 7 7 7 6 6 5 4 3 2 3 3 3 5 4 4 3 3 3 3 2 2 3 3 4 3 3 4 4 3
2 1 1 1 2 2 2 4 4 6 9 12 13 13 13 12 12 10 9 8 8 7 7 6 6 6 5 4 2 2 3 3 4 4 3 3 2 3 3 3 2 2 2 2 2 3 3 3 3
2 1 2 2 2 1 2 4 4 8 10 11 12 12 12 12 11 10 10 9 8 8 7 6 7 6 5 4 4 3 3 3 3 3 4 2 3 3 2 2 2 2 3 3 3 3 3 3 3
4 3 0 2 1 1 5 2 6 9 10 10 11 12 12 11 11 10 10 8 8 8 8 7 6 7 6 5 4 3 3 3 3 3 4 3 3 3 2 2 2 2 2 3 3 2 2 2 2
4 2 2 1 1 2 4 1 6 8 10 10 11 12 12 12 12 11 10 10 9 8 8 8 7 7 6 5 4 4 3 3 3 3 3 4 3 3 2 2 2 2 1 1 1 2 2 2 1
3 4 3 2 1 3 5 2 4 8 9 10 11 12 12 13 13 12 11 10 10 9 9 9 8 7 7 6 4 3 3 3 3 3 3 3 3 3 1 3 2 1 1 1 2 2 1 1 2
5 5 4 3 1 3 5 4 4 8 10 11 11 12 13 13 12 12 12 11 11 10 10 10 9 8 7 6 5 5 4 4 4 3 3 3 3 3 1 1 2 1 1 1 2 1 2 1 1
6 6 4 2 1 3 5 5 4 8 10 11 12 12 13 13 13 13 13 12 12 12 11 11 10 10 9 6 5 4 4 4 3 3 3 3 3 3 3 2 2 2 2 2 2 1 1 1 1
7 6 5 5 4 5 6 5 6 7 9 10 11 12 13 13 14 15 14 14 13 13 13 11 11 10 9 8 6 5 5 4 4 4 4 3 3 3 2 2 1 1 2 2 2 2 2 1 1
7 4 5 6 7 4 5 6 3 6 8 10 11 12 13 14 14 14 15 15 15 14 13 12 11 11 10 9 8 8 6 5 5 4 4 4 4 4 4 3 2 1 1 2 2 2 2 2 2
6 4 6 7 8 8 6 7 3 5 6 8 10 11 11 12 13 14 15 15 14 13 12 12 12 11 10 10 9 8 7 6 5 5 5 5 5 4 4 4 3 2 2 1 1 2 2 2 2
4 5 7 8 8 9 5 7 5 3 3 4 6 9 9 10 11 12 13 13 13 13 13 12 12 11 11 10 10 9 7 6 6 6 5 5 5 5 5 4 3 3 2 2 2 3 3 2 2
8 9 7 7 7 6 2 6 5 1 2 3 3 6 8 9 10 12 13 13 14 14 13 13 13 12 12 12 10 10 9 8 7 7 6 5 5 5 5 5 4 3 3 3 3 3 3 3 3
9 11 9 8 7 5 5 6 3 1 2 3 3 4 7 9 10 11 12 12 13 14 14 13 14 13 13 12 11 10 10 8 7 7 6 5 4 4 5 5 5 4 4 4 4 4 3 3 3
9 10 10 11 11 10 6 5 5 4 4 4 4 4 6 8 9 10 10 11 12 13 13 14 14 13 13 12 11 10 10 9 7 7 7 6 4 4 6 6 5 5 5 4 4 3 3 3 4
8 8 7 9 8 9 8 8 4 3 3 4 4 5 5 7 8 9 9 9 10 11 11 12 13 13 13 12 11 10 10 10 8 8 7 6 5 5 6 6 5 5 5 5 5 4 3 4 3
9 9 8 9 9 9 9 5 0 2 3 3 3 4 4 6 7 8 8 8 9 10 11 11 11 12 12 12 11 10 10 10 9 8 7 7 6 6 7 7 6 5 5 5 5 5 4 5 4
10 11 11 10 9 10 11 7 0 1 2 2 2 1 2 3 5 7 8 8 8 10 10 10 11 11 12 12 11 11 10 9 9 9 8 7 7 7 7 7 7 6 6 6 6 6 5 5 5
Wind_Direction
174 180 206 237 232 91 64 59 60 64 66 62 58 51 54 44 37 77 103 116 119 124 124 127 119 115 114 112 111 112 115 117 120 122 121 119 117 116 119 128 130 127 124 125 123 123 123 122 119
170 185 227 244 28 73 66 57 59 57 83 96 76 70 72 66 62 97 117 118 126 123 125 121 118 118 115 111 109 110 114 115 117 119 118 121 121 117 117 119 127 129 128 126 125 124 124 123 121
181 221 263 298 56 59 62 61 73 84 89 92 89 65 58 72 89 106 119 128 127 123 121 117 121 118 115 112 109 109 111 112 113 116 116 118 120 118 119 118 122 127 129 128 127 127 127 126 123
213 231 236 70 67 59 61 69 82 95 90 84 100 90 80 67 90 114 128 133 129 124 122 116 118 117 114 112 112 111 110 112 115 116 112 112 115 118 121 122 120 124 129 128 129 131 130 127 126
243 265 112 78 69 65 63 63 68 68 85 98 100 98 90 82 103 119 130 132 127 124 122 119 117 116 113 112 113 115 116 118 119 117 115 112 113 117 123 124 121 120 124 128 131 131 131 131 129
255 258 65 71 71 71 67 62 70 76 94 107 111 106 95 114 120 125 128 128 124 123 122 121 123 121 118 123 125 125 126 125 125 123 124 119 117 122 127 123 120 117 122 126 128 132 135 136 136
316 23 62 67 70 69 60 56 61 82 98 105 116 111 120 131 128 131 127 124 123 123 124 126 132 133 133 129 126 125 127 122 125 128 124 120 118 121 127 126 123 121 124 127 132 134 138 139 137
302 332 67 63 58 64 72 73 66 77 91 110 127 124 136 140 139 134 129 128 126 126 124 121 127 129 135 133 126 122 125 126 127 125 121 124 134 137 141 145 134 132 129 130 134 136 136 136 137
275 44 57 50 49 66 90 87 83 90 108 110 92 106 128 139 143 141 139 137 135 132 131 126 127 130 130 122 124 136 141 140 147 138 137 151 143 137 147 122 129 135 132 132 137 142 145 151 154
304 47 50 38 43 70 92 83 105 123 119 119 116 116 129 144 151 151 149 148 146 143 139 136 135 132 128 121 127 137 137 134 133 124 138 136 130 135 129 133 146 145 146 147 143 154 171 185 157
15 37 41 45 49 67 89 91 115 125 112 131 141 142 145 152 157 156 154 153 149 145 142 144 138 136 129 124 125 119 119 121 126 121 127 128 139 140 141 143 148 153 162 147 141 164 161 141 116
18 36 27 46 56 76 82 99 111 80 76 116 137 146 152 158 160 160 157 154 152 150 150 148 145 140 132 123 117 128 123 121 115 119 133 135 138 134 122 132 129 146 136 121 123 126 125 119 128
22 38 37 57 84 90 111 111 104 98 105 126 137 149 157 160 160 160 157 156 157 157 157 154 150 143 144 140 145 128 128 124 122 123 122 131 138 132 128 118 124 135 133 145 136 123 126 132 135
11 18 74 97 112 138 136 120 121 118 133 139 148 157 162 163 164 163 168 167 166 167 163 157 162 158 158 154 146 129 128 126 122 121 116 129 122 117 126 129 132 134 140 124 134 130 136 138 126
239 218 153 119 120 148 194 150 127 137 149 152 159 163 166 170 171 174 175 176 173 173 170 167 169 163 164 161 157 149 152 140 128 125 122 129 128 125 137 130 146 122 136 146 148 134 143 152 147
234 241 166 115 165 201 251 120 130 153 164 165 168 171 175 179 181 181 181 183 181 179 175 178 177 167 165 167 162 153 149 138 141 142 135 133 125 140 148 131 119 122 153 153 141 152 144 141 150
227 285 351 94 190 231 257 293 145 171 180 179 179 181 184 184 191 188 187 187 186 185 181 181 183 174 171 164 165 163 152 152 156 153 147 138 138 136 145 115 103 159 146 132 144 119 147 155 158
314 320 327 339 192 245 257 277 172 189 196 192 189 190 192 193 194 191 191 188 186 184 184 184 184 180 177 171 170 171 165 170 168 161 144 151 147 140 142 138 133 165 134 116 94 122 129 179 189
298 301 311 338 356 259 257 264 221 200 205 204 201 200 201 200 193 191 193 190 187 186 186 188 189 180 183 184 186 181 179 178 168 167 151 167 161 152 168 134 136 165 120 114 139 164 165 194 182
265 278 289 304 327 269 273 266 232 212 213 212 210 207 207 201 195 194 196 196 192 189 189 189 192 189 191 188 188 186 176 177 172 169 157 182 179 180 172 155 167 137 131 138 145 185 221 197 214
255 277 300 302 273 237 269 246 209 204 210 214 218 218 214 207 202 198 200 201 197 193 193 193 193 190 193 187 183 176 168 177 175 179 179 187 193 193 180 158 153 155 183 150 171 189 205 217 221
256 277 286 279 265 260 257 276 210 203 209 215 218 216 216 209 207 203 201 202 200 196 193 192 190 190 188 187 191 187 188 188 185 191 186 185 191 190 174 165 157 182 174 154 200 167 222 228 228
271 276 271 268 265 265 246 267 242 182 216 216 214 214 214 207 206 205 203 201 200 193 189 188 187 187 186 189 191 196 200 194 187 187 181 190 183 189 183 172 175 189 202 175 204 178 230 228 246
235 239 242 244 251 254 251 263 259 208 232 223 209 210 211 205 202 202 200 195 195 191 188 186 182 185 184 187 190 196 197 197 192 190 185 191 185 189 186 186 185 191 186 182 195 197 202 236 251
229 246 249 238 234 248 217 256 261 268 245 248 230 210 205 200 197 194 193 192 193 192 190 185 182 185 186 187 191 193 195 196 198 199 195 202 194 191 183 189 188 189 186 191 196 200 218 217 220
238 251 257 267 269 264 218 249 260 243 246 244 230 205 195 195 195 193 193 193 194 195 194 190 186 188 188 189 192 195 195 198 200 201 203 200 205 194 177 189 188 186 190 197 198 211 208 209 216
236 242 261 271 270 272 258 251 249 220 228 218 206 193 189 191 192 191 191 192 192 194 195 194 191 190 192 191 191 196 196 200 200 196 204 206 201 192 185 191 191 192 195 203 207 209 217 219 226
249 249 243 249 261 264 253 249 256 233 241 213 207 196 187 188 190 190 189 192 191 191 191 193 194 194 193 193 194 194 197 197 199 203 204 207 202 193 190 192 194 193 197 203 213 212 209 227 233
211 225 241 251 255 265 270 263 331 273 281 252 226 201 193 193 189 186 187 189 190 190 189 189 192 195 196 198 197 198 198 197 197 201 203 204 205 196 196 195 190 193 200 204 212 225 217 228 235
239 239 237 245 246 254 271 270 96 293 302 299 283 239 206 197 192 184 181 184 188 188 186 187 190 194 197 197 198 199 200 198 198 199 201 201 201 202 198 198 196 201 203 208 215 224 223 227 233
Height
1510 1510 1510 1512 1507 1500 1502 1500 1498 1500 1503 1507 1508 1507 1508 1510 1513 1522 1524 1523 1524 1526 1526 1526 1527 1528 1529 1530 1531 1532 1533 1534 1535 1536 1537 1537 1538 1539 1540 1540 1542 1543 1544 1545 1546 1548 1549 1551 1552
1511 1511 1513 1510 1500 1506 1507 1501 1501 1503 1507 1509 1510 1510 1511 1515 1519 1522 1523 1525 1526 1527 1528 1529 1529 1530 1531 1532 1533 1534 1535 1536 1537 1538 1538 1539 1540 1541 1541 1542 1543 1544 1546 1547 1548 1549 1551 1552 1553
1511 1511 1512 1502 1499 1505 1508 1502 1504 1507 1509 1510 1511 1513 1515 1519 1522 1523 1525 1526 1528 1529 1530 1530 1531 1532 1533 1534 1535 1536 1537 1538 1538 1539 1540 1541 1541 1542 1543 1543 1545 1546 1547 1548 1550 1551 1552 1554 1555
1513 1513 1510 1501 1504 1502 1502 1503 1505 1507 1510 1511 1512 1515 1520 1523 1524 1525 1526 1528 1530 1531 1532 1532 1533 1534 1535 1536 1537 1538 1539 1539 1540 1541 1541 1542 1543 1544 1544 1545 1546 1547 1549 1550 1551 1552 1554 1555 1556
1513 1510 1502 1502 1503 1502 1502 1505 1506 1506 1509 1512 1513 1517 1522 1526 1526 1527 1528 1531 1532 1533 1535 1535 1535 1536 1537 1537 1538 1539 1540 1540 1541 1542 1542 1543 1544 1545 1546 1547 1547 1549 1550 1551 1552 1553 1555 1556 1557
1513 1505 1502 1506 1505 1503 1504 1506 1506 1507 1511 1514 1515 1518 1524 1527 1528 1529 1531 1533 1534 1535 1537 1536 1537 1538 1538 1538 1539 1540 1540 1541 1542 1543 1543 1544 1545 1546 1547 1548 1549 1550 1551 1552 1553 1554 1556 1557 1558
1511 1502 1502 1503 1504 1504 1506 1507 1507 1508 1511 1514 1516 1518 1525 1528 1530 1532 1533 1535 1536 1537 1538 1539 1539 1539 1539 1539 1540 1541 1541 1542 1543 1543 1544 1545 1546 1547 1548 1549 1550 1551 1552 1553 1554 1555 1556 1557 1558
1511 1503 1500 1501 1504 1505 1507 1508 1510 1510 1513 1517 1517 1518 1523 1529 1531 1533 1534 1536 1537 1539 1540 1540 1541 1541 1541 1541 1541 1541 1542 1543 1543 1544 1545 1546 1547 1548 1549 1550 1551 1552 1553 1554 1555 1556 1557 1558 1559
1511 1503 1504 1503 1504 1505 1507 1508 1512 1514 1515 1517 1518 1519 1523 1528 1531 1534 1536 1538 1539 1540 1541 1542 1542 1542 1543 1543 1542 1542 1542 1543 1544 1545 1545 1547 1549 1550 1551 1552 1552 1553 1554 1555 1556 1557 1558 1559 1560
1509 1503 1505 1503 1503 1504 1507 1509 1512 1513 1515 1518 1520 1523 1526 1529 1532 1534 1536 1538 1540 1541 1542 1543 1543 1543 1543 1543 1543 1543 1544 1544 1545 1546 1547 1549 1549 1551 1552 1552 1553 1554 1555 1556 1557 1558 1559 1560 1562
1507 1505 1504 1505 1506 1506 1508 1509 1512 1511 1512 1516 1520 1524 1527 1530 1533 1535 1537 1539 1540 1542 1543 1544 1544 1544 1544 1544 1544 1544 1545 1545 1546 1547 1548 1549 1550 1552 1552 1554 1554 1555 1556 1558 1558 1559 1560 1561 1562
1507 1506 1507 1507 1508 1508 1508 1510 1511 1512 1514 1518 1521 1524 1527 1530 1533 1535 1537 1539 1541 1542 1543 1544 1545 1545 1545 1545 1545 1546 1547 1547 1548 1548 1549 1550 1551 1552 1553 1554 1555 1556 1558 1558 1559 1560 1560 1561 1562
1506 1507 1508 1508 1508 1509 1510 1510 1512 1515 1518 1520 1523 1526 1528 1531 1533 1536 1538 1540 1541 1543 1544 1545 1545 1545 1545 1545 1546 1547 1548 1549 1549 1549 1550 1551 1552 1553 1554 1555 1555 1557 1558 1559 1559 1560 1560 1561 1562
1508 1507 1507 1508 1508 1509 1509 1510 1512 1516 1519 1521 1524 1526 1529 1531 1534 1536 1538 1540 1541 1543 1544 1545 1545 1545 1546 1546 1547 1548 1549 1549 1550 1551 1551 1552 1553 1554 1555 1555 1555 1557 1558 1559 1559 1560 1561 1561 1562
1508 1506 1505 1506 1507 1509 1509 1509 1510 1515 1519 1521 1524 1527 1529 1531 1534 1536 1538 1540 1541 1542 1544 1545 1545 1546 1547 1548 1548 1549 1550 1551 1551 1552 1552 1552 1554 1554 1555 1556 1556 1556 1557 1558 1559 1560 1561 1561 1562
1504 1503 1505 1504 1506 1508 1509 1509 1509 1515 1517 1520 1523 1526 1528 1531 1533 1535 1537 1539 1540 1542 1543 1544 1546 1547 1547 1548 1549 1550 1551 1551 1552 1552 1553 1553 1554 1554 1555 1556 1557 1556 1557 1558 1559 1560 1561 1561 1562
1502 1505 1505 1504 1504 1505 1506 1506 1508 1513 1515 1518 1521 1524 1527 1529 1532 1534 1536 1537 1539 1540 1542 1543 1545 1546 1547 1548 1549 1550 1551 1551 1552 1553 1553 1553 1554 1554 1555 1556 1556 1556 1557 1558 1559 1560 1561 1561 1562
1508 1504 1505 1504 1502 1503 1504 1503 1506 1511 1512 1515 1518 1521 1524 1527 1530 1532 1534 1536 1537 1539 1540 1542 1544 1545 1546 1547 1548 1549 1550 1551 1552 1553 1553 1554 1554 1555 1555 1556 1556 1557 1558 1558 1558 1559 1559 1560 1561
1503 1504 1505 1502 1500 1503 1503 1502 1503 1507 1510 1512 1515 1518 1521 1524 1527 1530 1532 1534 1535 1537 1539 1541 1542 1543 1545 1547 1548 1549 1550 1551 1552 1553 1553 1554 1554 1555 1555 1556 1556 1556 1557 1557 1558 1559 1559 1560 1560
1503 1505 1503 1501 1500 1503 1502 1501 1499 1504 1507 1509 1511 1514 1517 1521 1524 1527 1529 1531 1533 1535 1537 1539 1540 1542 1544 1545 1547 1548 1549 1551 1552 1553 1553 1554 1554 1555 1555 1555 1556 1556 1556 1556 1557 1558 1559 1559 1560
1503 1503 1503 1503 1501 1500 1501 1500 1498 1499 1503 1506 1509 1511 1513 1516 1519 1523 1526 1528 1531 1532 1534 1537 1538 1540 1542 1544 1545 1547 1548 1550 1551 1552 1553 1553 1554 1554 1554 1555 1555 1555 1556 1556 1556 1557 1558 1559 1559
1504 1498 1500 1502 1504 1501 1502 1507 1496 1494 1498 1501 1503 1506 1508 1511 1515 1518 1521 1524 1527 1529 1532 1534 1536 1538 1540 1542 1544 1546 1547 1549 1550 1551 1552 1552 1553 1553 1554 1554 1554 1555 1555 1555 1556 1556 1557 1558 1559
1499 1498 1499 1500 1501 1502 1499 1504 1494 1490 1494 1494 1497 1501 1504 1507 1511 1514 1517 1520 1524 1527 1529 1531 1533 1535 1538 1540 1542 1544 1546 1547 1549 1549 1550 1551 1552 1552 1553 1553 1553 1553 1554 1554 1554 1555 1556 1557 1558
1498 1499 1499 1497 1498 1510 1500 1504 1499 1486 1489 1489 1493 1497 1501 1504 1507 1511 1514 1517 1521 1524 1526 1528 1530 1532 1535 1537 1540 1542 1544 1545 1547 1548 1549 1550 1551 1551 1551 1552 1552 1552 1553 1553 1553 1554 1555 1555 1556
1498 1502 1510 1512 1510 1506 1495 1500 1494 1483 1485 1488 1491 1495 1498 1501 1504 1507 1511 1514 1517 1520 1523 1525 1526 1529 1532 1535 1537 1539 1541 1543 1544 1546 1547 1548 1549 1550 1550 1551 1551 1551 1551 1552 1552 1553 1553 1554 1554
1495 1496 1511 1520 1514 1501 1496 1498 1486 1481 1485 1488 1491 1493 1496 1498 1501 1504 1507 1511 1513 1516 1519 1522 1524 1526 1529 1531 1534 1537 1538 1541 1542 1544 1546 1547 1548 1548 1548 1549 1549 1550 1550 1551 1551 1552 1552 1552 1552
1495 1494 1489 1498 1501 1504 1495 1488 1482 1480 1483 1486 1488 1491 1493 1496 1499 1502 1505 1508 1510 1513 1516 1519 1521 1523 1526 1528 1531 1533 1535 1537 1540 1541 1543 1544 1545 1546 1546 1547 1548 1548 1549 1550 1550 1551 1550 1551 1551
1489 1488 1492 1499 1513 1514 1500 1493 1486 1481 1481 1482 1486 1488 1492 1494 1497 1500 1503 1505 1508 1511 1513 1516 1518 1520 1523 1525 1528 1530 1532 1534 1536 1538 1540 1541 1542 1543 1544 1545 1546 1547 1547 1547 1548 1549 1549 1549 1549
1492 1492 1492 1492 1495 1508 1509 1495 1474 1478 1479 1481 1484 1487 1490 1492 1495 1498 1500 1503 1506 1508 1511 1513 1515 1518 1520 1522 1525 1527 1529 1531 1533 1535 1536 1538 1539 1540 1541 1543 1544 1544 1545 1546 1546 1547 1547 1547 1548
1484 1485 1488 1498 1500 1497 1499 1491 1472 1476 1479 1482 1484 1487 1489 1491 1494 1496 1498 1501 1503 1506 1508 1510 1512 1515 1517 1519 1521 1523 1526 1528 1530 1532 1533 1535 1536 1538 1539 1540 1541 1542 1543 1543 1544 1545 1545 1545 1545